Location: Stull Observatory
(42.2506°N, 77.7903°W)
Time: 17:23:43
(UTC-04:00)

Daily predictions for brighter satellites

Satellite Brightness Start Highest point End
(mag) Time Altitude Azimuth Time Altitude Azimuth Time Altitude Azimuth
CENTAUR R/B 3.6 20:52:01 10° NNW 20:59:36 52° NE 21:07:45 10° ESE
NOSS 3-4 (A) 3.9 20:55:04 10° SW 21:01:22 73° NW 21:07:55 10° NNE
NOSS 3-4 (C) 3.9 20:55:11 10° SW 21:01:29 74° NW 21:08:01 10° NNE
Cosmos 2263 4.5 20:56:15 10° NNW 21:02:03 76° WSW 21:07:46 10° SSE
CZ-2D R/B 4.4 21:01:36 10° S 21:05:17 45° W 21:08:58 10° NNW
Cosmos 1743 3.8 21:02:45 10° NNE 21:06:10 28° ENE 21:09:34 10° SE
NOSS 2-2 (C) 4.1 21:06:07 10° S 21:09:41 32° ESE 21:13:37 10° NE
Spot 2 Rocket 4.5 21:06:44 10° S 21:11:36 48° W 21:16:30 10° NNW
Aureole 1 Rocket 4.3 21:11:36 10° SE 21:13:14 13° ESE 21:14:47 10° ENE
Cosmos 1536 Rocket 3.7 21:11:25 10° S 21:15:36 52° E 21:19:50 10° NNE
ASTRO E2 4.5 21:14:06 10° SW 21:16:42 17° S 21:19:14 10° SE
Cosmos 1680 Rocket 4.3 21:13:56 10° SSE 21:18:25 30° E 21:22:56 10° NE
SL-27 R/B 4.4 21:17:15 10° SE 21:19:14 14° E 21:21:14 10° ENE
Helios 1A 3.4 21:21:42 10° S 21:25:54 67° W 21:30:06 10° NNW
PSLV R/B 3.0 21:26:01 10° WSW 21:29:08 66° S 21:32:15 10° E
Resurs 01 Rocket 3.8 21:27:44 10° SSW 21:31:20 24° W 21:34:58 10° NW
Meteor 2-4 Rocket 4.3 21:26:13 10° SSE 21:31:21 39° E 21:36:38 10° NNE
Cosmos 1544 Rocket 4.1 21:28:23 10° NNW 21:32:39 58° W 21:36:52 10° S
Envisat 3.5 21:28:29 10° S 21:33:30 61° W 21:38:32 10° NNW
Cosmos 292 Rocket 4.1 21:29:15 10° SSW 21:34:05 73° WNW 21:38:55 10° NNE
SPOT 5 3.7 21:34:31 14° SE 21:37:36 30° ENE 21:41:23 10° N
Cosmos 1666 3.1 21:35:52 10° N 21:39:30 45° E 21:42:12 16° SSE
Lacrosse 5 rocket 4.4 21:38:46 10° NW 21:41:40 16° NNW 21:44:36 10° NNE
Nadezhda 1 Rocket 4.3 21:37:14 10° SSE 21:43:19 52° E 21:49:30 10° NNE
Meteor 1-19 Rocket 4.3 21:42:40 10° S 21:48:30 77° E 21:54:15 10° NNE
Cosmos 1025 Rocket 3.8 21:45:55 17° SE 21:48:37 33° E 21:52:26 10° NNE
ASTEX 1 3.4 21:43:57 11° SSE 21:48:41 70° E 21:53:34 10° N
RESURS DK-1 4.3 21:50:06 10° WSW 21:53:52 33° WNW 21:57:39 10° N
MOS 1-B Rocket 4.0 21:49:25 15° SSE 21:54:09 65° ENE 22:00:22 10° N
Aureole 3 Rocket 3.8 21:48:55 10° S 21:55:57 85° E 22:00:55 10° N
Terra 3.6 21:53:59 12° E 21:56:27 18° ENE 21:59:35 10° NNE
Meteor 1-23 Rocket 4.4 21:52:54 12° SSE 21:57:50 50° E 22:03:12 10° NNE
NOSS 2-2 (E) 3.7 21:54:22 10° SW 21:58:23 75° NW 22:03:07 10° NNE
CRYOSAT 2 4.3 21:54:49 13° SSE 21:59:08 79° E 22:03:59 10° N
Cosmos 923 Rocket 4.1 21:58:02 10° SSW 22:03:22 82° WNW 22:08:42 10° NNE
Cosmos 405 Rocket 3.1 22:00:29 10° SSW 22:04:11 63° WNW 22:07:58 10° N
Helios 1B rocket 4.4 22:00:55 10° N 22:04:32 30° WNW 22:08:10 10° SW
Cosmos 1346 3.3 22:03:17 13° SSW 22:05:41 61° W 22:08:26 10° N
Cosmos 1656 Rocket 3.8 22:00:35 10° NNW 22:06:00 68° WSW 22:10:13 17° S
Cosmos 1238 Rocket 4.1 22:00:44 10° S 22:07:22 73° E 22:14:00 10° NNE
GENESIS II 4.5 22:03:45 10° NNW 22:07:40 57° NE 22:09:34 27° ESE
YAOGAN 6 3.8 22:05:25 10° SSW 22:08:38 36° W 22:11:54 10° NNW
Tiangong 2 2.5 22:06:51 10° SW 22:08:38 23° S 22:08:38 23° S
H-2A R/B 3.8 22:08:01 17° E 22:09:57 22° ENE 22:13:24 10° NNE
MetOp-A 4.1 22:06:10 17° SSE 22:10:25 87° WSW 22:15:49 10° NNW
Cosmos 374 Rocket 4.5 22:08:17 10° NW 22:12:01 62° WSW 22:14:01 26° SSE
COSMOS 2455 4.1 22:07:19 10° NW 22:12:43 35° WSW 22:18:01 10° S
Cosmos 2341 Rocket 4.4 22:08:58 10° N 22:15:06 49° ENE 22:18:46 24° SE
Cosmos 1441 Rocket 3.1 22:15:21 17° SSW 22:18:12 84° W 22:21:57 10° N
Cosmos 1943 Rocket 4.1 22:15:23 10° NW 22:19:38 23° W 22:23:51 10° SSW
OAO 2 Rocket 3.9 22:19:45 10° WSW 22:24:14 35° S 22:25:27 30° SE
ERS-1 Rocket 3.8 22:21:30 13° S 22:25:48 45° W 22:30:38 10° NNW
H-2A R/B 2.0 22:24:05 29° SE 22:26:31 62° ENE 22:31:28 10° N
COSMOS 2406 3.7 22:22:44 10° SW 22:28:24 64° WNW 22:34:06 10° NNE
Okean 1-7 Rocket 3.7 22:25:22 16° SSW 22:28:53 76° W 22:33:23 10° N
USA 267 4.0 22:25:20 10° ENE 22:30:53 29° SE 22:32:18 27° SSE
DMSP B5D2-2 4.5 22:26:57 10° NNE 22:32:01 44° E 22:33:57 31° SSE
ARGOS 3.3 22:32:24 23° S 22:35:51 69° WSW 22:41:17 10° NNW
Cosmos 2112 Rocket 4.4 22:31:07 10° SSW 22:36:18 64° WNW 22:41:29 10° NNE
Cosmos 2278 4.3 22:33:58 10° NNW 22:39:26 44° ENE 22:41:57 28° ESE
DNEPR-1 R/B 4.0 22:38:04 10° NW 22:42:13 51° WSW 22:43:52 33° S
Cosmos 2082 Rocket 3.1 22:43:04 27° ESE 22:43:28 27° ESE 22:48:11 10° NE
Cosmos 1624 Rocket 4.0 22:38:49 10° NNW 22:44:07 77° ENE 22:46:15 37° SSE
Intercosmos 24 4.4 22:40:53 10° NNW 22:44:54 50° W 22:46:21 30° SSW
Cosmos 1892 Rocket 3.5 22:44:34 41° SSE 22:46:02 70° E 22:50:26 10° NNE
SL-24 DEB 4.2 22:44:02 33° S 22:46:05 82° W 22:50:43 10° N
Cosmos 2181 Rocket 4.0 22:46:01 27° S 22:49:39 73° E 22:55:58 10° NNE
IGS 5A 3.8 22:49:33 43° ESE 22:50:20 49° ENE 22:54:21 10° N
CENTAUR R/B 3.8 22:42:54 10° NW 22:50:23 45° WSW 22:55:42 21° S
Okean 2 3.7 22:48:38 27° SSW 22:50:42 61° W 22:54:45 10° N
deb Chang Zheng 4 4.0 22:47:02 10° NNE 22:51:09 41° E 22:51:21 41° ESE
Cosmos 2228 3.2 22:48:47 10° N 22:53:03 56° E 22:53:47 48° ESE
SL-27 R/B 4.0 22:50:50 11° SW 22:54:07 36° WNW 22:57:32 10° N
USA 245 4.2 22:54:49 24° WSW 22:55:01 24° W 22:57:13 10° NW
Cosmos 1437 Rocket 3.1 22:52:50 10° NNW 22:56:36 57° W 22:57:30 43° SSW
Cosmos 2369 3.9 22:52:02 10° NNW 22:57:43 60° ENE 22:59:47 38° SE
Cosmos 921 Rocket 3.1 22:55:24 10° NNW 22:59:54 69° ENE 23:00:46 54° SE
Cosmos 1606 Rocket 3.9 22:56:03 10° NNW 23:00:19 59° W 23:01:41 39° SSW
Cosmos 2056 Rocket 3.4 22:57:28 10° NNW 23:02:40 80° WSW 23:04:18 44° S
PSLV R/B 4.5 23:09:06 32° NNE 23:09:06 32° NNE 23:10:51 10° N
Cosmos 1697 Rocket 3.5 23:05:05 10° N 23:10:20 39° ENE 23:12:12 30° E
Cosmos 1726 Rocket 4.0 23:07:27 10° NNW 23:11:40 53° W 23:12:47 41° SW
Cosmos 1809 Rocket 4.5 23:06:31 10° N 23:12:34 64° E 23:14:28 43° SE
Cosmos 2058 Rocket 3.2 23:11:13 10° NNW 23:15:37 68° W 23:16:28 53° SSW
SPOT 5 4.4 23:13:45 18° SW 23:15:43 24° W 23:19:14 10° NW
SL-19 R/B 4.0 23:12:17 10° NNE 23:17:43 82° ESE 23:19:21 46° S
Cosmos 1271 Rocket 4.4 23:14:56 10° NNE 23:17:42 22° ENE 23:17:42 22° ENE
Landsat 7 4.3 23:17:21 40° SSW 23:18:42 53° W 23:23:22 10° NNW
COSMOS 2487 3.0 23:19:36 53° NE 23:19:36 53° NE 23:22:27 10° NNE
CZ-4B R/B 3.6 23:14:19 10° NNE 23:19:17 56° ESE 23:19:54 53° SE
CARTOSAT-1 3.6 23:19:44 60° SSW 23:20:20 70° WSW 23:24:40 10° NNW
Cosmos 839 Rocket 4.3 23:15:58 10° NW 23:22:32 79° WSW 23:25:34 40° SSE
Cosmos 864 Rocket 4.5 23:18:49 10° N 23:25:09 74° E 23:27:01 47° SSE
SL-19 R/B 4.5 23:25:29 71° S 23:25:58 87° W 23:30:06 10° NNW
Cosmos 1833 Rocket 2.7 23:28:30 55° SSE 23:29:19 61° ESE 23:34:52 10° NNE
Cosmos 1066 Rocket 4.1 23:28:37 48° SSW 23:30:15 85° W 23:35:53 10° N
Terra 2.2 23:32:52 47° SW 23:33:45 54° W 23:38:26 10° NNW
Cosmos 1766 3.8 23:30:25 10° N 23:33:44 48° NE 23:33:44 48° NE
Cosmos 1452 Rocket 3.4 23:29:45 10° NNW 23:35:03 83° ENE 23:35:54 63° SE
Cosmos 1656 3.5 23:29:44 10° NNW 23:35:13 84° ENE 23:36:13 60° SE
Spot 4 3.7 23:37:32 72° SSE 23:38:01 88° ENE 23:42:51 10° NNW
SL-8 Rocket 4.3 23:34:13 10° NNW 23:40:21 60° W 23:42:36 39° SSW
Cosmos 2366 rocket 4.0 23:37:42 10° N 23:43:53 77° W 23:45:36 49° SSW
H-2A R/B 3.0 23:45:08 37° WSW 23:45:41 39° W 23:49:57 10° NNW
Cosmos 1812 Rocket 3.5 23:41:33 10° N 23:45:57 75° ENE 23:45:57 75° ENE
ISS -1.5 23:52:40 21° NNE 23:52:40 21° NNE 23:54:03 10° NE
Meteor 1-4 Rocket 3.8 23:52:56 10° NNW 23:55:39 36° WNW 23:55:39 36° WNW
